This demonstration page uses our WeatherBlox Daily Observations layout. Learn more.

Left ArrowRight Arrow

Hourly Observations for February 1, 2019

Temp ( °F °C ) Dew Point ( °F °C ) Humidity (%) Winds ( mph kmh ) Pressure ( in mb ) Visibility ( mi km ) Precip ( " mm )
12:15 am 00:15 Cloudy 10 -12 10 -12 100 100 E 7 11 30.36 1028 1 1 N/A
12:35 am 00:35 Cloudy 10 -12 10 -12 100 100 E 6 9 30.35 1028 1 2 N/A
12:56 am 00:56 Cloudy 10 -12 10 -12 100 100 E 8 13 30.34 1027 1 2 N/A
1:15 am 01:15 Cloudy 10 -12 10 -12 100 100 ESE 5 7 30.33 1027 2 2 N/A
1:35 am 01:35 Cloudy 12 -11 12 -11 100 100 E 5 7 30.34 1027 2 3 N/A
1:56 am 01:56 Cloudy 12 -11 12 -11 100 100 E 5 7 30.33 1027 3 5 N/A
2:15 am 02:15 Cloudy 12 -11 12 -11 100 100 E 6 9 30.32 1027 5 8 N/A
2:35 am 02:35 Cloudy 12 -11 12 -11 100 100 ESE 6 9 30.32 1027 4 6 N/A
2:56 am 02:56 Cloudy 12 -11 12 -11 100 100 ESE 5 7 30.32 1027 3 5 N/A
3:15 am 03:15 Cloudy 12 -11 12 -11 100 100 ESE 6 9 30.32 1027 2 3 N/A
3:35 am 03:35 Cloudy 12 -11 12 -11 100 100 E 3 6 30.32 1027 3 4 N/A
3:56 am 03:56 Cloudy 12 -11 12 -11 100 100 E 5 7 30.31 1026 3 4 N/A
4:15 am 04:15 Cloudy 12 -11 12 -11 100 100 ESE 5 7 30.30 1026 4 6 N/A
4:35 am 04:35 Cloudy 12 -11 12 -11 100 100 E 5 7 30.30 1026 5 8 N/A
4:56 am 04:56 Cloudy 14 -10 14 -10 100 100 ESE 5 7 30.28 1026 7 11 N/A
5:15 am 05:15 Cloudy 14 -10 14 -10 100 100 E 6 9 30.28 1026 10 16 N/A
5:36 am 05:36 Cloudy 14 -10 14 -10 100 100 ENE 5 7 30.29 1026 10 16 N/A
5:56 am 05:56 Cloudy 14 -10 14 -10 100 100 E 5 7 30.30 1026 10 16 N/A
6:15 am 06:15 Cloudy 14 -10 14 -10 100 100 E 5 7 30.30 1026 10 16 N/A
6:36 am 06:36 Cloudy 14 -10 14 -10 100 100 E 5 7 30.30 1026 5 8 N/A
6:56 am 06:56 Cloudy 14 -10 14 -10 100 100 ESE 5 7 30.30 1026 5 8 N/A
7:15 am 07:15 Cloudy 14 -10 14 -10 100 100 ESE 3 6 30.30 1026 5 8 N/A
7:36 am 07:36 Cloudy 14 -10 14 -10 100 100 SE 3 6 30.31 1027 5 8 N/A
7:56 am 07:56 Cloudy 16 -9 16 -9 100 100 ESE 3 6 30.32 1027 4 6 N/A
8:15 am 08:15 Cloudy 16 -9 16 -9 100 100 N N/A 30.32 1027 4 6 N/A
8:36 am 08:36 Cloudy 16 -9 16 -9 100 100 E 3 6 30.33 1027 4 6 N/A
8:56 am 08:56 Cloudy 16 -9 16 -9 100 100 N N/A 30.34 1027 4 6 N/A
9:15 am 09:15 Cloudy 16 -9 16 -9 100 100 E 3 6 30.35 1028 5 8 N/A
9:36 am 09:36 Cloudy 16 -9 16 -9 100 100 NE 3 6 30.36 1028 5 8 N/A
9:56 am 09:56 Cloudy 16 -9 16 -9 100 100 NE 3 6 30.36 1028 5 8 N/A
10:15 am 10:15 Cloudy 16 -9 16 -9 100 100 NE 6 9 30.37 1028 7 11 N/A
10:36 am 10:36 Cloudy 16 -9 16 -9 100 100 E 3 6 30.36 1028 7 11 N/A
10:55 am 10:55 Cloudy 18 -8 18 -8 100 100 E 5 7 30.35 1028 7 11 N/A
11:16 am 11:16 Cloudy 18 -8 18 -8 100 100 ENE 3 6 30.36 1028 7 11 N/A
11:36 am 11:36 Cloudy 19 -7 19 -7 100 100 ENE 6 9 30.35 1028 7 11 N/A
11:55 am 11:55 Cloudy 19 -7 19 -7 100 100 NE 3 6 30.36 1028 10 16 N/A
12:16 pm 12:16 Cloudy 19 -7 19 -7 100 100 N N/A 30.36 1028 10 16 N/A
12:36 pm 12:36 Cloudy 21 -6 19 -7 93 93 N N/A 30.36 1028 10 16 N/A
12:55 pm 12:55 Cloudy 21 -6 19 -7 93 93 E 3 6 30.35 1028 10 16 N/A
1:16 pm 13:16 Cloudy 21 -6 19 -7 93 93 E 5 7 30.34 1027 10 16 N/A
1:36 pm 13:36 Cloudy 23 -5 21 -6 93 93 N N/A 30.34 1028 10 16 N/A
1:55 pm 13:55 Cloudy 23 -5 19 -7 86 86 N N/A 30.33 1027 10 16 N/A
2:16 pm 14:16 Cloudy 23 -5 21 -6 93 93 N N/A 30.34 1028 10 16 N/A
2:35 pm 14:35 Cloudy 25 -4 21 -6 86 86 N N/A 30.33 1027 7 11 N/A
2:56 pm 14:56 Cloudy 23 -5 21 -6 93 93 NE 5 7 30.33 1027 10 16 N/A
3:16 pm 15:16 Cloudy 25 -4 21 -6 86 86 NE 3 6 30.34 1027 10 16 N/A
3:35 pm 15:35 Mostly Cloudy 25 -4 21 -6 86 86 NNE 3 6 30.34 1027 10 16 N/A
3:56 pm 15:56 Sunny 25 -4 21 -6 86 86 N N/A 30.34 1027 10 16 N/A
4:15 pm 16:15 Sunny 25 -4 21 -6 86 86 NNE 3 6 30.35 1028 10 16 N/A
4:35 pm 16:35 Partly Cloudy 23 -5 21 -6 93 93 N N/A 30.35 1028 10 16 N/A
4:56 pm 16:56 Partly Cloudy 23 -5 21 -6 93 93 NE 3 6 30.35 1028 10 16 N/A
5:15 pm 17:15 Sunny 21 -6 19 -7 93 93 NE 3 6 30.37 1028 10 16 N/A
5:35 pm 17:35 Sunny 21 -6 19 -7 93 93 N N/A 30.36 1028 10 16 N/A
5:56 pm 17:56 Sunny 19 -7 19 -7 100 100 N N/A 30.36 1028 10 16 N/A
6:15 pm 18:15 Clear 16 -9 16 -9 100 100 ENE 3 6 30.37 1028 10 16 N/A
6:35 pm 18:35 Clear 14 -10 14 -10 100 100 ENE 5 7 30.37 1029 10 16 N/A
6:56 pm 18:56 Clear 14 -10 14 -10 100 100 E 5 7 30.38 1029 7 11 N/A
7:15 pm 19:15 Clear 14 -10 14 -10 100 100 E 5 7 30.37 1029 7 11 N/A
7:36 pm 19:36 Clear 10 -12 10 -12 100 100 E 5 7 30.39 1029 5 8 N/A
7:56 pm 19:56 Clear 14 -10 14 -10 100 100 E 6 9 30.38 1029 5 8 N/A
8:15 pm 20:15 Clear 10 -12 10 -12 100 100 ESE 7 11 30.38 1029 5 8 N/A
8:36 pm 20:36 Clear 14 -10 14 -10 100 100 ESE 3 6 30.38 1029 7 11 N/A
8:56 pm 20:56 Clear 14 -10 14 -10 100 100 ESE 5 7 30.37 1029 5 8 N/A
9:15 pm 21:15 Clear 16 -9 16 -9 100 100 SE 5 7 30.37 1028 7 11 N/A
9:36 pm 21:36 Clear 16 -9 16 -9 100 100 SE 6 9 30.37 1028 10 16 N/A
9:55 pm 21:55 Clear 16 -9 16 -9 100 100 SE 5 7 30.37 1028 7 11 N/A
10:15 pm 22:15 Clear 16 -9 16 -9 100 100 SSE 5 7 30.37 1028 7 11 N/A
10:36 pm 22:36 Clear 16 -9 16 -9 100 100 SE 5 7 30.37 1028 7 11 N/A
10:55 pm 22:55 Clear 16 -9 16 -9 100 100 N N/A 30.38 1029 7 11 N/A
11:15 pm 23:15 Clear 10 -12 10 -12 100 100 SE 3 6 30.38 1029 4 6 N/A
11:36 pm 23:36 Clear 12 -11 12 -11 100 100 SE 5 7 30.39 1029 5 8 N/A
11:55 pm 23:55 Clear 10 -12 10 -12 100 100 SE 6 9 30.38 1029 4 6 N/A

Powered by AerisWeather